�N����,����,�g�[���i�䏊�j���x,�g�[�����x,��g�[���i���ցj���x,����
 2002/10/19, 0:00,25.4,56,23.2,22
 2002/10/19, 0:15,25.2,56,23.1,22.1
 2002/10/19, 0:30,25,56,23.1,22.1
 2002/10/19, 0:45,24.8,57,23.2,22.1
 2002/10/19, 1:00,24.7,57,23.1,22.1
 2002/10/19, 1:15,25,55,23.1,22.1
 2002/10/19, 1:30,24.9,55,23.1,22.1
 2002/10/19, 1:45,24.7,56,23,22.1
 2002/10/19, 2:00,24.5,56,23,22.1
 2002/10/19, 2:15,24.6,56,23,22.1
 2002/10/19, 2:30,24.8,55,23,22.1
 2002/10/19, 2:45,24.8,55,23,22.1
 2002/10/19, 3:00,24.5,56,22.9,22.2
 2002/10/19, 3:15,24.4,56,22.8,22.2
 2002/10/19, 3:30,24.6,55,22.8,22.2
 2002/10/19, 3:45,24.7,54,22.8,22.2
 2002/10/19, 4:00,24.3,56,22.7,22.2
 2002/10/19, 4:15,24.2,56,22.8,22.2
 2002/10/19, 4:30,24.3,55,22.7,22.2
 2002/10/19, 4:45,24.5,55,22.6,22.2
 2002/10/19, 5:00,24.2,56,22.6,22.2
 2002/10/19, 5:15,24,57,22.5,22.2
 2002/10/19, 5:30,24,56,22.5,22.2
 2002/10/19, 5:45,24.3,55,22.5,22.2
 2002/10/19, 6:00,24.7,72,22.6,21.9
 2002/10/19, 6:15,24.7,58,22.5,21.9
 2002/10/19, 6:30,24.3,57,22.5,21.9
 2002/10/19, 6:45,24.4,56,22.5,21.9
 2002/10/19, 7:00,24.5,54,22.4,21.9
 2002/10/19, 7:15,24.4,55,22.4,21.9
 2002/10/19, 7:30,24.6,56,22.4,21.9
 2002/10/19, 7:45,24.9,57,22.3,22.5
 2002/10/19, 8:00,24.7,56,22.1,22.4
 2002/10/19, 8:15,24.7,55,22.3,22.4
 2002/10/19, 8:30,24.8,55,22.4,22.4
 2002/10/19, 8:45,24.3,57,22.4,22.4
 2002/10/19, 9:00,24.5,57,22.4,22.4
 2002/10/19, 9:15,24.5,57,22.4,22.4
 2002/10/19, 9:30,24.1,59,22.5,22.4
 2002/10/19, 9:45,24.3,58,22.4,22.4
 2002/10/19,10:00,24.3,58,22.5,22.4
 2002/10/19,10:15,24.1,59,22.5,22.4
 2002/10/19,10:30,24.4,58,22.6,22.4
 2002/10/19,10:45,24.1,59,22.7,22.4
 2002/10/19,11:00,24.3,58,22.7,22.4
 2002/10/19,11:15,24.4,57,22.8,22.4
 2002/10/19,11:30,24.2,58,22.8,22.4
 2002/10/19,11:45,24.4,57,22.8,22.4
 2002/10/19,12:00,24.3,58,23,22.4
 2002/10/19,12:15,24.8,62,22.9,22.6
 2002/10/19,12:30,25.1,62,23,22.6
 2002/10/19,12:45,25.2,60,23.1,22.6
 2002/10/19,13:00,24.8,60,23.1,22.6
 2002/10/19,13:15,24.8,60,23.2,22.6
 2002/10/19,13:30,25.6,59,23.2,22.6
 2002/10/19,13:45,25.9,58,23.1,22.6
 2002/10/19,14:00,26.1,58,23.1,22.6
 2002/10/19,14:15,26.2,58,23.1,22.6
 2002/10/19,14:30,26,59,23.1,22.6
 2002/10/19,14:45,26.1,59,23.1,22.6
 2002/10/19,15:00,26.2,59,23.1,22.6
 2002/10/19,15:15,26,60,23.1,22.6
 2002/10/19,15:30,26,59,23.1,22.6
 2002/10/19,15:45,25.8,59,23.1,22.6
 2002/10/19,16:00,25.7,59,22.9,22.4
 2002/10/19,16:15,25.7,58,22.9,22.5
 2002/10/19,16:30,25.5,59,23,22.5
 2002/10/19,16:45,25.7,58,22.9,22.1
 2002/10/19,17:00,25.5,58,22.7,22.1
 2002/10/19,17:15,25.6,59,22.7,22.1
 2002/10/19,17:30,26.3,70,22.7,22.5
 2002/10/19,17:45,26.4,71,22.6,22.5
 2002/10/19,18:00,26.2,60,22.4,22.5
 2002/10/19,18:15,26.4,60,22.5,22.5
 2002/10/19,18:30,26.3,59,22.5,22.5
 2002/10/19,18:45,26.3,59,22.4,22.5
 2002/10/19,19:00,26.2,56,22.4,22.4
 2002/10/19,19:15,26.3,60,22.3,22.5
 2002/10/19,19:30,26.3,61,22.3,22.5
 2002/10/19,19:45,26,59,22.3,22.5
 2002/10/19,20:00,25.9,59,22.3,22.5
 2002/10/19,20:15,26.1,59,22.3,22.5
 2002/10/19,20:30,26,58,22.2,22.5
 2002/10/19,20:45,25.6,58,22.5,22.5
 2002/10/19,21:00,25.8,58,22.4,22.5
 2002/10/19,21:15,26.2,58,22.3,22.5
 2002/10/19,21:30,26.3,59,22.2,22.5
 2002/10/19,21:45,26.1,56,22.5,22.5
 2002/10/19,22:00,26.1,58,22.4,22.5
 2002/10/19,22:15,26.2,57,22.5,22.4
 2002/10/19,22:30,26.3,57,22.3,22.4
 2002/10/19,22:45,26.3,57,22.3,22.4
 2002/10/19,23:00,25.9,59,22.3,22.4
 2002/10/19,23:15,25.9,59,22.2,22.4
 2002/10/19,23:30,26,59,22.2,22.4
 2002/10/19,23:45,25.8,61,22.1,21.9
 2002/10/20, 0:00,25.5,59,22.3,22
 2002/10/20, 0:15,25.3,58,22.3,22
 2002/10/20, 0:30,25.3,57,22.2,22
 2002/10/20, 0:45,24.9,57,22.2,22
 2002/10/20, 1:00,24.7,58,22.2,22
 2002/10/20, 1:15,25.2,55,22.1,22
 2002/10/20, 1:30,25.2,55,22.1,22
 2002/10/20, 1:45,25.2,55,22.1,22
 2002/10/20, 2:00,25.1,55,22.1,22
 2002/10/20, 2:15,24.5,57,22.1,22
 2002/10/20, 2:30,24.7,56,22.1,22
 2002/10/20, 2:45,24.8,55,22.1,22
 2002/10/20, 3:00,24.3,57,22.1,22
 2002/10/20, 3:15,24.4,56,22,22
 2002/10/20, 3:30,24.5,56,22,22
 2002/10/20, 3:45,24,57,22,22
 2002/10/20, 4:00,24.3,56,21.9,22
 2002/10/20, 4:15,24.3,56,22,22
 2002/10/20, 4:30,23.9,58,22,22
 2002/10/20, 4:45,24.2,57,21.9,22
 2002/10/20, 5:00,23.9,57,21.9,22
 2002/10/20, 5:15,23.9,57,21.9,22
 2002/10/20, 5:30,24.2,72,21.8,21.8
 2002/10/20, 5:45,23.9,60,21.9,21.8
 2002/10/20, 6:00,24,58,21.7,21.8
 2002/10/20, 6:15,23.6,58,21.8,21.8
 2002/10/20, 6:30,24,60,21.6,21.8
 2002/10/20, 6:45,24,59,21.5,21.8
 2002/10/20, 7:00,23.7,60,21.6,22.6
 2002/10/20, 7:15,24,58,21.6,22.6
 2002/10/20, 7:30,23.9,58,21.5,22.3
 2002/10/20, 7:45,23.8,59,21.6,22.3
 2002/10/20, 8:00,24.3,57,21.6,22.3
 2002/10/20, 8:15,24.2,57,21.9,22.2
 2002/10/20, 8:30,24.1,61,22,22.3
 2002/10/20, 8:45,23.9,63,22.1,22.3
 2002/10/20, 9:00,23.8,62,22.1,22.2
 2002/10/20, 9:15,24.1,59,22.1,22.2
 2002/10/20, 9:30,23.7,59,22.1,22.2
 2002/10/20, 9:45,24,58,22.2,22.2
 2002/10/20,10:00,23.8,58,22.2,22.2
 2002/10/20,10:15,23.8,58,22.3,22.2
 2002/10/20,10:30,24,57,22.3,22.2
 2002/10/20,10:45,23.7,58,22.3,22.2
 2002/10/20,11:00,24,57,22.4,22.2
 2002/10/20,11:15,23.7,58,22.4,22.2
 2002/10/20,11:30,24.1,60,22.4,21.8
 2002/10/20,11:45,24.3,58,22.4,21.8
 2002/10/20,12:00,23.9,59,22.6,21.8
 2002/10/20,12:15,24.3,57,22.6,21.8
 2002/10/20,12:30,24,57,22.6,21.8
 2002/10/20,12:45,24.1,57,22.6,21.8
 2002/10/20,13:00,24.1,57,22.6,21.8
 2002/10/20,13:15,23.9,57,22.6,21.8
 2002/10/20,13:30,24.2,56,22.6,21.8
 2002/10/20,13:45,23.9,57,22.6,21.8
 2002/10/20,14:00,24.1,57,22.8,21.9
 2002/10/20,14:15,24.4,56,22.6,21.9
 2002/10/20,14:30,24.8,59,22.7,21.9
 2002/10/20,14:45,25.2,59,22.7,21.9
 2002/10/20,15:00,25.4,56,22.7,21.9
 2002/10/20,15:15,25.4,59,22.8,21.9
 2002/10/20,15:30,25.1,59,22.5,21.9
 2002/10/20,15:45,25.5,58,22.5,21.9
 2002/10/20,16:00,25.6,56,22.5,21.9
 2002/10/20,16:15,25.6,56,22.6,21.6
 2002/10/20,16:30,25.6,56,22.6,21.9
 2002/10/20,16:45,25.3,57,22.4,22.6
 2002/10/20,17:00,25.5,57,22.3,22.6
 2002/10/20,17:15,25.5,56,22.3,22.1
 2002/10/20,17:30,25.1,58,22.4,22.1
 2002/10/20,17:45,25.5,59,22.2,22.1
 2002/10/20,18:00,25.6,56,22.4,22.1
 2002/10/20,18:15,25.8,64,22.4,22.2
 2002/10/20,18:30,25.2,59,22.5,22.2
 2002/10/20,18:45,25.6,61,22.3,22.2
 2002/10/20,19:00,25.8,60,22.2,22.1
 2002/10/20,19:15,25.4,61,22.4,22.1
 2002/10/20,19:30,25.8,61,22.3,22.1
 2002/10/20,19:45,25.7,59,22.1,22.1
 2002/10/20,20:00,25.4,60,22.1,22.1
 2002/10/20,20:15,26.1,63,22.2,22.1
 2002/10/20,20:30,25.5,65,22.3,22
 2002/10/20,20:45,25.4,64,22.2,22.1
 2002/10/20,21:00,25.6,62,22.1,22.2
 2002/10/20,21:15,25.6,62,22.1,22.2
 2002/10/20,21:30,25.4,63,22.1,22.1
 2002/10/20,21:45,25.6,61,22,22
 2002/10/20,22:00,25.5,62,22,22.1
 2002/10/20,22:15,25.5,62,22,21.9
 2002/10/20,22:30,25.6,61,22,22
 2002/10/20,22:45,25.1,61,22,22
 2002/10/20,23:00,25.2,61,22,21.9
 2002/10/20,23:15,25.2,60,21.9,21.9
 2002/10/20,23:30,24.8,61,21.9,21.9
 2002/10/20,23:45,24.9,60,21.8,21.9
 2002/10/21, 0:00,24.6,61,21.7,21.9
 2002/10/21, 0:15,24.5,61,21.7,21.9
 2002/10/21, 0:30,24.8,60,21.7,21.9
 2002/10/21, 0:45,24.3,61,21.8,21.9
 2002/10/21, 1:00,24.5,60,21.7,21.9
 2002/10/21, 1:15,24.4,60,21.6,21.9
 2002/10/21, 1:30,24.1,61,21.6,21.9
 2002/10/21, 1:45,24.4,60,21.6,21.9
 2002/10/21, 2:00,24.1,61,21.5,21.9
 2002/10/21, 2:15,24.1,60,21.5,21.9
 2002/10/21, 2:30,24.2,60,21.5,21.9
 2002/10/21, 2:45,23.8,61,21.4,21.9
 2002/10/21, 3:00,24.1,60,21.4,21.9
 2002/10/21, 3:15,23.8,61,21.3,21.9
 2002/10/21, 3:30,23.8,61,21.4,21.9
 2002/10/21, 3:45,23.9,60,21.3,21.9
 2002/10/21, 4:00,23.6,61,21.2,21.9
 2002/10/21, 4:15,23.7,60,21.1,21.9
 2002/10/21, 4:30,23.8,59,21.2,21.7
 2002/10/21, 4:45,23.7,59,21.1,21.7
 2002/10/21, 5:00,23.3,60,21.1,21.7
 2002/10/21, 5:15,23.4,61,21.1,21.7
 2002/10/21, 5:30,23.8,79,21,22.5
 2002/10/21, 5:45,23.8,62,21.1,22.4
 2002/10/21, 6:00,23.4,61,21,22.4
 2002/10/21, 6:15,23.5,60,20.8,22.4
 2002/10/21, 6:30,24.3,63,20.8,22.4
 2002/10/21, 6:45,24.1,61,20.8,22.4
 2002/10/21, 7:00,24.1,59,20.7,22.3
 2002/10/21, 7:15,24.2,59,20.8,22.3
 2002/10/21, 7:30,24.1,59,20.8,22.3
 2002/10/21, 7:45,24.1,60,20.8,22.3
 2002/10/21, 8:00,24.2,60,20.7,22.3
 2002/10/21, 8:15,23.8,60,20.8,22.1
 2002/10/21, 8:30,23.5,61,20.7,22.1
 2002/10/21, 8:45,23.7,61,20.7,22.5
 2002/10/21, 9:00,24.4,72,20.7,22.1
 2002/10/21, 9:15,23.9,62,20.8,22.1
 2002/10/21, 9:30,23.8,63,20.8,22
 2002/10/21, 9:45,23.7,63,20.8,22.3
 2002/10/21,10:00,23.7,62,20.9,22.3
 2002/10/21,10:15,23.7,61,20.8,22.2
 2002/10/21,10:30,23.6,62,20.8,22.2
 2002/10/21,10:45,23.2,63,20.8,22.2
 2002/10/21,11:00,23.3,62,20.7,22.2
 2002/10/21,11:15,23.4,61,20.9,22.1
 2002/10/21,11:30,23.1,63,20.9,22.1
 2002/10/21,11:45,23,63,21,22.1
 2002/10/21,12:00,23.2,62,21.1,22.1
 2002/10/21,12:15,23.2,61,21.1,22.1
 2002/10/21,12:30,22.9,62,21.1,22
 2002/10/21,12:45,23,62,21.1,22
 2002/10/21,13:00,23.1,61,21.1,22
 2002/10/21,13:15,22.8,63,21.1,22
 2002/10/21,13:30,22.9,62,21.1,21.9
 2002/10/21,13:45,23,61,21.1,21.9
 2002/10/21,14:00,22.8,62,21.3,21.9
 2002/10/21,14:15,22.9,61,21.3,21.9
 2002/10/21,14:30,23,60,21.4,21.9
 2002/10/21,14:45,22.7,62,21.4,21.8
 2002/10/21,15:00,22.9,60,21.5,21.8
 2002/10/21,15:15,22.9,60,21.5,21.8
 2002/10/21,15:30,22.7,61,21.5,21.8
 2002/10/21,15:45,23,59,21.5,21.8
 2002/10/21,16:00,23,59,21.6,21.8
 2002/10/21,16:15,22.9,59,21.6,21.7
 2002/10/21,16:30,23.3,58,21.6,21.7
 2002/10/21,16:45,23.1,58,21.5,21.7
 2002/10/21,17:00,23,59,21.4,21.7
 2002/10/21,17:15,23.2,57,21.3,21.7
 2002/10/21,17:30,23.1,59,21.3,21.7
 2002/10/21,17:45,23.3,57,21.3,21.6
 2002/10/21,18:00,23.3,54,21.2,21.6
 2002/10/21,18:15,23.6,54,21,21.5
 2002/10/21,18:30,23.6,56,20.9,21.5
 2002/10/21,18:45,23.6,59,21,21.5
 2002/10/21,19:00,23.8,59,21,21.5
 2002/10/21,19:15,24.1,58,20.9,21.5
 2002/10/21,19:30,24.2,57,20.8,21.5
 2002/10/21,19:45,24.1,61,20.8,22.2
 2002/10/21,20:00,23.7,64,20.8,22.2
 2002/10/21,20:15,23.7,59,21,22.1
 2002/10/21,20:30,23.6,58,21,21.9
 2002/10/21,20:45,23.3,59,20.9,21.9
 2002/10/21,21:00,23.4,59,20.9,21.9
 2002/10/21,21:15,23.3,61,21,21.8
 2002/10/21,21:30,23.1,61,20.8,21.8
 2002/10/21,21:45,23.3,60,20.7,21.8
 2002/10/21,22:00,23.2,61,20.5,21.8
 2002/10/21,22:15,23.1,61,20.6,21.8
 2002/10/21,22:30,23.1,60,20.6,21.1
 2002/10/21,22:45,22.8,60,20.7,21.4
 2002/10/21,23:00,22.8,60,20.7,21.4
 2002/10/21,23:15,23.6,61,20.5,21.4
 2002/10/21,23:30,23.8,62,20.3,21.3
 2002/10/21,23:45,23.4,64,20.3,21.3
 2002/10/22, 0:00,23.4,66,20.4,21.3
 2002/10/22, 0:15,23.5,64,20.4,21.3
 2002/10/22, 0:30,23.2,63,20.2,22
 2002/10/22, 0:45,23.2,62,20.2,22
 2002/10/22, 1:00,23.2,61,20.1,22
 2002/10/22, 1:15,22.9,62,20,22
 2002/10/22, 1:30,23,60,19.7,21.9
 2002/10/22, 1:45,22.8,60,19.7,21.9
 2002/10/22, 2:00,22.6,61,19.6,21.9
 2002/10/22, 2:15,22.7,60,19.5,21.8
 2002/10/22, 2:30,22.4,60,19.5,21.8
 2002/10/22, 2:45,22.4,60,19.5,21.8
 2002/10/22, 3:00,22.3,59,19.5,21.3
 2002/10/22, 3:15,21.9,60,19.5,21.3
 2002/10/22, 3:30,22,59,19.3,21.3
 2002/10/22, 3:45,21.9,59,19.1,21.3
 2002/10/22, 4:00,21.6,60,19.2,21.3
 2002/10/22, 4:15,21.8,59,19.2,21.2
 2002/10/22, 4:30,21.5,60,19.1,21.2
 2002/10/22, 4:45,21.5,60,19.2,21.2
 2002/10/22, 5:00,21.5,59,19,21.2
 2002/10/22, 5:15,21.2,60,19.1,21.1
 2002/10/22, 5:30,21.4,59,19.2,21.1
 2002/10/22, 5:45,21.4,60,19,21.1
 2002/10/22, 6:00,21.2,61,19.2,21.8
 2002/10/22, 6:15,21.5,60,19.1,21.8
 2002/10/22, 6:30,21.4,61,18,21.8
 2002/10/22, 6:45,21.7,68,17.9,21.7
 2002/10/22, 7:00,21.9,65,17.8,22
 2002/10/22, 7:15,21.5,62,18.3,21.6
 2002/10/22, 7:30,21.7,62,18.5,21.9
 2002/10/22, 7:45,22,60,18.5,21.8
 2002/10/22, 8:00,22,61,18.6,21.8
 2002/10/22, 8:15,22.2,61,18.9,21.7
 2002/10/22, 8:30,22.3,61,19.2,21.9
 2002/10/22, 8:45,21.8,61,19.2,21.9
 2002/10/22, 9:00,22.1,60,19.3,21.9
 2002/10/22, 9:15,22.3,55,19.3,21.8
 2002/10/22, 9:30,22.4,64,19.2,21.8
 2002/10/22, 9:45,22.3,64,19.2,21.7
 2002/10/22,10:00,22.1,61,19.2,21.7
 2002/10/22,10:15,22.3,58,19.3,21.6
 2002/10/22,10:30,22.5,57,19.5,21.6
 2002/10/22,10:45,22.2,57,19.5,21.2
 2002/10/22,11:00,22.3,57,19.6,21.1
 2002/10/22,11:15,22.4,56,19.6,21.1
 2002/10/22,11:30,21.9,53,19.9,21.1
 2002/10/22,11:45,22.3,54,19.9,21
 2002/10/22,12:00,22.2,53,20,21
 2002/10/22,12:15,22,53,20,21
 2002/10/22,12:30,22.6,57,20.2,20.9
 2002/10/22,12:45,22.4,56,20.1,20.9
 2002/10/22,13:00,22.5,55,20.6,20.9
 2002/10/22,13:15,22.5,53,20.7,20.9
 2002/10/22,13:30,22.4,50,20.6,20.8
 2002/10/22,13:45,22.6,49,20.6,20.8
 2002/10/22,14:00,22.3,51,20.8,20.8
 2002/10/22,14:15,22.6,50,20.8,21.8
 2002/10/22,14:30,22.5,51,20.8,21.8
 2002/10/22,14:45,22.5,52,20.8,21.7
 2002/10/22,15:00,22.6,55,20.8,21.7
 2002/10/22,15:15,22.4,53,20.8,21.4
 2002/10/22,15:30,22.7,53,20.9,21.4
 2002/10/22,15:45,22.4,52,20.9,21.3
 2002/10/22,16:00,22.6,52,20.9,22.3
 2002/10/22,16:15,22.6,52,20.8,22.2
 2002/10/22,16:30,22.6,53,20.8,22.1
 2002/10/22,16:45,22.7,53,20.7,22
 2002/10/22,17:00,22.5,55,20.8,22
 2002/10/22,17:15,22.8,55,20.8,21.9
 2002/10/22,17:30,22.7,63,20.7,21.3
 2002/10/22,17:45,23,60,20.6,21.3
 2002/10/22,18:00,23.3,62,20.6,21.3
 2002/10/22,18:15,23.3,63,20.6,21.3
 2002/10/22,18:30,23.5,60,20.5,21.2
 2002/10/22,18:45,23.1,59,20.5,21.2
 2002/10/22,19:00,23.2,58,20.6,21.3
 2002/10/22,19:15,23.2,56,20.6,21.3
 2002/10/22,19:30,22.9,56,20.6,21.8
 2002/10/22,19:45,22.9,54,20.6,21.9
 2002/10/22,20:00,23,53,20.5,22
 2002/10/22,20:15,22.8,54,20.4,21.9
 2002/10/22,20:30,23,54,20.4,21.9
 2002/10/22,20:45,22.7,56,20.3,21.9
 2002/10/22,21:00,23,56,20.1,21.8
 2002/10/22,21:15,22.8,56,20.1,21.8
 2002/10/22,21:30,22.6,58,20,21.7
 2002/10/22,21:45,22.8,57,20,21.7
 2002/10/22,22:00,22.5,58,20,21.7
 2002/10/22,22:15,22.6,57,19.9,21.6
 2002/10/22,22:30,22.6,57,19.9,21.6
 2002/10/22,22:45,22.4,58,19.7,21.6
 2002/10/22,23:00,22.6,57,19.7,21.5
 2002/10/22,23:15,22.3,60,19.7,21
 2002/10/22,23:30,22.5,59,19.5,21
 2002/10/22,23:45,22.3,58,19.5,21
 2002/10/23, 0:00,22.2,56,19.4,21
 2002/10/23, 0:15,22.2,55,19.3,21
 2002/10/23, 0:30,22.2,55,19.2,20.9
 2002/10/23, 0:45,21.9,56,19.2,20.9
 2002/10/23, 1:00,21.6,57,19.2,20.9
 2002/10/23, 1:15,21.8,56,19,20.9
 2002/10/23, 1:30,22,55,19,20.8
 2002/10/23, 1:45,21.9,54,19,20.8
 2002/10/23, 2:00,21.5,56,18.9,20.8
 2002/10/23, 2:15,21.7,55,18.9,20.7
 2002/10/23, 2:30,21.3,56,18.8,20.7
 2002/10/23, 2:45,21.4,55,18.7,20.6
 2002/10/23, 3:00,21.2,55,18.7,20.6
 2002/10/23, 3:15,21,56,18.6,20.6
 2002/10/23, 3:30,21.2,55,18.6,20.7
 2002/10/23, 3:45,20.8,56,18.5,20.6
 2002/10/23, 4:00,20.9,55,18.4,20.6
 2002/10/23, 4:15,20.8,55,18.4,20.5
 2002/10/23, 4:30,20.6,56,18.4,20.5
 2002/10/23, 4:45,20.8,55,18.1,20.5
 2002/10/23, 5:00,20.4,56,18.2,20.4
 2002/10/23, 5:15,20.7,67,18.2,20.4
 2002/10/23, 5:30,20.4,58,18.1,20.3
 2002/10/23, 5:45,20.3,58,18.1,20.3
 2002/10/23, 6:00,20.3,56,18.1,20.3
 2002/10/23, 6:15,20.1,56,18,20.2
 2002/10/23, 6:30,20.5,56,18,20.2
 2002/10/23, 6:45,20.1,57,17.8,21.1
 2002/10/23, 7:00,20.5,56,17.2,22.1
 2002/10/23, 7:15,20.3,56,16.2,21.7
 2002/10/23, 7:30,20.4,58,16.3,21.7
 2002/10/23, 7:45,20.1,52,16.5,21.7
 2002/10/23, 8:00,20,50,16.6,21.6
 2002/10/23, 8:15,19.9,50,16.9,21.6
 2002/10/23, 8:30,19.8,50,17.4,20.9
 2002/10/23, 8:45,20.2,50,17.4,20.9
 2002/10/23, 9:00,20.4,52,17.6,20.8
 2002/10/23, 9:15,19.5,54,17.7,20.7
 2002/10/23, 9:30,19.2,50,18.2,20.7
 2002/10/23, 9:45,19.7,48,18.2,20.6
 2002/10/23,10:00,19.6,48,18.2,20.5
 2002/10/23,10:15,20.4,49,18.3,20.5
 2002/10/23,10:30,19.6,49,18.5,20.4
 2002/10/23,10:45,20.3,47,18.5,20.4
 2002/10/23,11:00,19.9,47,18.6,20.3
 2002/10/23,11:15,20.3,46,18.6,20.2
 2002/10/23,11:30,20.2,47,18.9,20.4
 2002/10/23,11:45,20.3,48,19,20.3
 2002/10/23,12:00,20.5,48,19.1,20.3
 2002/10/23,12:15,20.3,49,19.1,20.2
 2002/10/23,12:30,20.7,48,19.1,20.2
 2002/10/23,12:45,20.3,51,19.2,20.1
 2002/10/23,13:00,21.4,52,19.3,20.1
 2002/10/23,13:15,21.1,52,19.3,20.1
 2002/10/23,13:30,21.5,52,19.3,20
 2002/10/23,13:45,21.9,50,19.4,20
 2002/10/23,14:00,21.3,49,19.6,19.9
 2002/10/23,14:15,22.2,52,19.5,21.1
 2002/10/23,14:30,22.4,47,19.6,21
 2002/10/23,14:45,21.8,48,19.7,21
 2002/10/23,15:00,22.4,52,19.6,20.9
 2002/10/23,15:15,22.5,45,19.6,20.9
 2002/10/23,15:30,22,51,19.8,21
 2002/10/23,15:45,22.6,46,19.9,20.9
 2002/10/23,16:00,22.4,47,19.7,20.9
 2002/10/23,16:15,22.1,46,19.7,22
 2002/10/23,16:30,22.6,46,19.8,22
 2002/10/23,16:45,22.6,46,19.8,21.9
 2002/10/23,17:00,22,48,19.7,21.9
 2002/10/23,17:15,21.5,49,19.8,21.8
 2002/10/23,17:30,22.1,48,19.8,21.7
 2002/10/23,17:45,21.8,48,19.7,21.7
 2002/10/23,18:00,21.1,51,19.7,21.6
 2002/10/23,18:15,20.8,52,19.7,21.6
 2002/10/23,18:30,20.6,52,19.6,21.5
 2002/10/23,18:45,20.4,53,19.5,21.5
 2002/10/23,19:00,20.9,51,19.6,21.4
 2002/10/23,19:15,20.7,52,19.5,21.4
 2002/10/23,19:30,20.2,54,19.4,21.3
 2002/10/23,19:45,20,54,19.4,21.3
 2002/10/23,20:00,20.3,55,19.6,21.2
 2002/10/23,20:15,21.3,55,19.5,20.6
 2002/10/23,20:30,21.7,56,19.5,20.6
 2002/10/23,20:45,22,56,19.5,20.6
 2002/10/23,21:00,21.7,53,19.6,20.5
 2002/10/23,21:15,21.5,54,19.4,20.5
 2002/10/23,21:30,22.3,54,19.3,20.5
 2002/10/23,21:45,22.2,52,19.5,20.4
 2002/10/23,22:00,22.1,51,19.5,21
 2002/10/23,22:15,21.4,54,19.4,21
 2002/10/23,22:30,21.8,52,19.3,21
 2002/10/23,22:45,22.1,51,19.5,21
 2002/10/23,23:00,21.5,56,19.4,21
 2002/10/23,23:15,21.7,57,19.3,20.9
 2002/10/23,23:30,22.1,55,19.3,20.9
 2002/10/23,23:45,21.6,55,19.2,20.9
 2002/10/24, 0:00,21.4,56,19.2,20.8
 2002/10/24, 0:15,21.9,54,19.2,20.8
 2002/10/24, 0:30,21.6,54,19.1,20.7
 2002/10/24, 0:45,21,56,19,20.7
 2002/10/24, 1:00,21.7,53,19,20.7
 2002/10/24, 1:15,21.4,54,19,20.6
 2002/10/24, 1:30,20.8,56,19,20.6
 2002/10/24, 1:45,21.5,54,18.9,20.6
 2002/10/24, 2:00,21.2,54,18.9,20.5
 2002/10/24, 2:15,20.6,57,18.8,20.5
 2002/10/24, 2:30,21.3,54,18.8,20.5
 2002/10/24, 2:45,20.9,56,18.8,20.3
 2002/10/24, 3:00,20.6,58,18.7,20.4
 2002/10/24, 3:15,21.1,55,18.8,20.3
 2002/10/24, 3:30,20.6,57,18.5,20.3
 2002/10/24, 3:45,20.7,57,18.6,20.3
 2002/10/24, 4:00,21,56,18.5,20.2
 2002/10/24, 4:15,20.3,58,18.5,20.2
 2002/10/24, 4:30,20.8,57,18.5,20.2
 2002/10/24, 4:45,20.5,57,18.4,20.1
 2002/10/24, 5:00,20.3,58,18.3,20.1
 2002/10/24, 5:15,20.7,56,18.4,20.1
 2002/10/24, 5:30,20.2,66,18.2,20.2
 2002/10/24, 5:45,20.7,62,18.2,20.3
 2002/10/24, 6:00,20.4,62,18.1,20.2
 2002/10/24, 6:15,20.3,62,18.1,20.2
 2002/10/24, 6:30,21.1,62,18.1,20.1
 2002/10/24, 6:45,21.3,60,18.1,20.1
 2002/10/24, 7:00,20.6,64,18.1,21.3
 2002/10/24, 7:15,21.3,61,18.1,21.4
 2002/10/24, 7:30,21.4,58,17.8,21.3
 2002/10/24, 7:45,21.2,55,17.8,21.3
 2002/10/24, 8:00,20.4,57,18,21.2
 2002/10/24, 8:15,20.9,55,18,21.1
 2002/10/24, 8:30,21.6,54,18.2,21.1
 2002/10/24, 8:45,21.6,58,18.4,20.5
 2002/10/24, 9:00,21.1,57,18.7,20.4
 2002/10/24, 9:15,21,57,18.7,20.4
 2002/10/24, 9:30,21,56,19,20.6
 2002/10/24, 9:45,21,55,19.2,20.5
 2002/10/24,10:00,20.9,55,19.2,20.5
 2002/10/24,10:15,21.1,57,19.2,20.5
 2002/10/24,10:30,21.1,56,19.2,20.4
 2002/10/24,10:45,21,57,19.2,20.4
 2002/10/24,11:00,21.2,56,19.3,20.3
 2002/10/24,11:15,21,55,19.5,20.3
 2002/10/24,11:30,21.1,53,19.7,20.3
 2002/10/24,11:45,21.3,54,19.7,20.2
 2002/10/24,12:00,21.2,55,19.6,20.2
 2002/10/24,12:15,21.6,57,19.8,20.2
 2002/10/24,12:30,21.4,57,19.9,20.1
 2002/10/24,12:45,21.6,56,19.9,20.1
 2002/10/24,13:00,21.6,56,20,20.1
 2002/10/24,13:15,21.8,60,20,19.7
 2002/10/24,13:30,21.7,54,20.3,20.2
 2002/10/24,13:45,21.5,51,20.3,20.1
 2002/10/24,14:00,21.7,49,20.4,20.1
 2002/10/24,14:15,21.5,49,20.4,20.1
 2002/10/24,14:30,21.7,49,20.5,20.1
 2002/10/24,14:45,21.6,49,20.4,20.9
 2002/10/24,15:00,21.6,50,20.5,20.9
 2002/10/24,15:15,21.6,50,20.5,20.9
 2002/10/24,15:30,21.6,50,20.6,20.8
 2002/10/24,15:45,21.8,50,20.6,20.8
 2002/10/24,16:00,22.2,57,20.6,20.8
 2002/10/24,16:15,22.4,56,20.6,20.8
 2002/10/24,16:30,22.3,54,20.8,20.7
 2002/10/24,16:45,22.3,54,20.7,20.7
 2002/10/24,17:00,22.2,53,20.7,21
 2002/10/24,17:15,22.2,52,20.5,20.9
 2002/10/24,17:30,22.2,50,20.6,21
 2002/10/24,17:45,22.3,51,20.3,21
 2002/10/24,18:00,22.6,49,20.1,20.9
 2002/10/24,18:15,22.6,50,20,20.9
 2002/10/24,18:30,22.3,49,20,20.9
 2002/10/24,18:45,22.5,49,19.6,21
 2002/10/24,19:00,22.5,51,19.7,20.9
 2002/10/24,19:15,22.7,52,19.7,20.9
 2002/10/24,19:30,22.9,54,19.6,21.1
 2002/10/24,19:45,22.5,55,19.5,21.1
 2002/10/24,20:00,22.5,54,19.5,21.1
 2002/10/24,20:15,22.7,67,19.5,21.1
 2002/10/24,20:30,22.6,61,19.5,21.1
 2002/10/24,20:45,22.2,59,19.7,20.7
 2002/10/24,21:00,22.2,58,19.8,20.7
 2002/10/24,21:15,21.9,56,19.7,20.7
 2002/10/24,21:30,22.2,56,19.7,20.7
 2002/10/24,21:45,22,56,19.7,20.6
 2002/10/24,22:00,21.9,57,19.5,20.6
 2002/10/24,22:15,21.9,57,19.5,20.6
 2002/10/24,22:30,21.8,57,19.5,20.5
 2002/10/24,22:45,21.9,57,19.4,20.5
 2002/10/24,23:00,21.9,57,19.3,20.5
 2002/10/24,23:15,21.7,58,19.3,20.5
 2002/10/24,23:30,21.5,58,19.2,20.4
 2002/10/24,23:45,22.1,64,19.3,20.4
 2002/10/25, 0:00,22.2,61,19.2,20.4
 2002/10/25, 0:15,22.3,66,19.3,20.3
 2002/10/25, 0:30,22.2,65,19.2,20.3
 2002/10/25, 0:45,22.1,62,19.2,20.8
 2002/10/25, 1:00,22.1,61,19,20.9
 2002/10/25, 1:15,22,61,19,20.9
 2002/10/25, 1:30,21.6,61,18.9,20.9
 2002/10/25, 1:45,21.7,60,18.9,20.8
 2002/10/25, 2:00,21.5,60,19,20.8
 2002/10/25, 2:15,21.5,60,18.9,20.7
 2002/10/25, 2:30,21.3,59,19,20.7
 2002/10/25, 2:45,21.3,59,18.9,20.3
 2002/10/25, 3:00,21.2,59,18.7,20.3
 2002/10/25, 3:15,21.1,59,18.8,20.2
 2002/10/25, 3:30,21,59,18.7,20.2
 2002/10/25, 3:45,20.9,59,18.6,20.2
 2002/10/25, 4:00,20.9,58,18.6,20.1
 2002/10/25, 4:15,20.8,59,18.6,20.1
 2002/10/25, 4:30,20.8,58,18.5,20.1
 2002/10/25, 4:45,20.6,59,18.5,20
 2002/10/25, 5:00,20.8,58,18.5,20
 2002/10/25, 5:15,20.5,65,18.5,20
 2002/10/25, 5:30,20.7,61,18.5,20
 2002/10/25, 5:45,20.4,59,18.5,20
 2002/10/25, 6:00,20.5,58,18.4,19.9
 2002/10/25, 6:15,20.3,57,18.4,19.9
 2002/10/25, 6:30,20.4,58,18.2,19.9
 2002/10/25, 6:45,20.4,57,18,19.9
 2002/10/25, 7:00,20.5,56,18,20.9
 2002/10/25, 7:15,20.7,55,18.2,20.9
 2002/10/25, 7:30,20.5,55,18.3,20.9
 2002/10/25, 7:45,20.7,58,18.4,20.9
 2002/10/25, 8:00,20.6,57,18.5,20.8
 2002/10/25, 8:15,20.7,57,18.6,20.8
 2002/10/25, 8:30,20.6,57,18.8,20.7
 2002/10/25, 8:45,20.6,56,19,21.3
 2002/10/25, 9:00,20.5,54,19,21.2
 2002/10/25, 9:15,20.6,55,19.1,21.1
 2002/10/25, 9:30,20.8,53,19.1,21.1
 2002/10/25, 9:45,20.8,53,19.2,20.9
 2002/10/25,10:00,20.8,53,19.3,20.9
 2002/10/25,10:15,20.8,53,19.4,20.8
 2002/10/25,10:30,21,52,19.6,20.8
 2002/10/25,10:45,20.9,53,19.6,20.7
 2002/10/25,11:00,21.1,53,19.7,20.7
 2002/10/25,11:15,21,53,19.9,20.6
 2002/10/25,11:30,21.2,52,20,20.6
 2002/10/25,11:45,21.1,52,20,20.1
 2002/10/25,12:00,21.3,52,20.1,20.1
 2002/10/25,12:15,21.2,53,20.2,20.1
 2002/10/25,12:30,21.4,52,20.3,20.1
 2002/10/25,12:45,21.3,52,20.4,20
 2002/10/25,13:00,21.5,51,20.3,20
 2002/10/25,13:15,21.4,51,20.5,20
 2002/10/25,13:30,21.4,51,20.5,20
 2002/10/25,13:45,21.5,51,20.5,20
 2002/10/25,14:00,21.4,52,20.5,20
 2002/10/25,14:15,21.5,50,20.6,20
 2002/10/25,14:30,21.5,50,20.6,20
 2002/10/25,14:45,21.7,50,20.7,20
 2002/10/25,15:00,21.9,50,20.7,19.9
 2002/10/25,15:15,21.7,50,20.8,19.9
 2002/10/25,15:30,21.7,51,20.7,19.9
 2002/10/25,15:45,22.1,50,20.8,19.9
 2002/10/25,16:00,22.3,49,20.9,19.9
 2002/10/25,16:15,22.2,50,20.9,19.9
 2002/10/25,16:30,22.2,50,20.9,19.9
 2002/10/25,16:45,22.3,49,20.9,19.9
 2002/10/25,17:00,22.2,50,20.8,19.9
 2002/10/25,17:15,22.7,52,20.8,20.4
 2002/10/25,17:30,22.7,52,20.6,20.4
 2002/10/25,17:45,23,54,20.5,20.8
 2002/10/25,18:00,23.2,59,20.4,20.8
 2002/10/25,18:15,23,59,20.3,20.7
 2002/10/25,18:30,23.2,58,20.3,21.2
 2002/10/25,18:45,23.1,57,20.5,21.2
 2002/10/25,19:00,22.8,59,20.5,21.2
 2002/10/25,19:15,22.8,53,20.3,20.8
 2002/10/25,19:30,22.6,53,20.6,20.8
 2002/10/25,19:45,22.6,53,20.4,20.8
 2002/10/25,20:00,22.7,54,20.3,20.8